Station PILL1 - 8760721 - Pilottown, LA Image indicating link to RSS feed of recent meteorological observations for station PILL1


Conditions at PILL1 as of
(11:00 am CDT)
1600 GMT on 04/20/2024:
     

Click on the graph icon in the table below to see a time series plot of the last five days of that observation.

5-day plot - Wind Direction Wind Direction (WDIR): SW ( 230 deg true )
5-day plot - Wind Speed Wind Speed (WSPD): 5.1 kts
5-day plot - Wind Gust Wind Gust (GST): 5.1 kts
5-day plot - Atmospheric Pressure Atmospheric Pressure (PRES):30.09 in
5-day plot - Pressure Tendency Pressure Tendency (PTDY):+0.02 in ( Rising )
5-day plot - Air Temperature Air Temperature (ATMP): 74.5 °F
5-day plot - Water Temperature Water Temperature (WTMP): 63.1 °F
5-day plot - Wind Speed at 10 Meters Wind Speed at 10 meters (WSPD10M): 5.8 kts
5-day plot - Wind Speed at 20 Meters Wind Speed at 20 meters (WSPD20M): 5.8 kts
5-day plot -  Wind Speed, Wind Gust and Atmospheric Pressure Combined plot of Wind Speed, Gust, and Air Pressure
NOS Water Level Observation Network Water Level
Previous observations
TIME
(CDT)
5-day plot - Wind Direction
WDIR
 
5-day plot - Wind Speed
WSPD
kts
5-day plot - Wind Gust
GST
kts
5-day plot - Wave Height
WVHT
ft
5-day plot - Dominant Wave Period
DPD
sec
5-day plot - Average Wave Period
APD
sec
5-day plot - Mean Wave Direction
MWD
 
5-day plot - Atmospheric Pressure
PRES
in
5-day plot - Pressure Tendency
PTDY
in
5-day plot - Air Temperature
ATMP
°F
5-day plot - Water Temperature
WTMP
°F
5-day plot - Dew Point
DEWP
°F
5-day plot - Salinity
SAL
psu
5-day plot - Visibility
VIS
nmi
5-day plot - Tide (above MLLW)
TIDE
ft
2024-04-20 10:54 amWSW 4.1 5.1----30.09- 74.8 63.1----
2024-04-20 10:48 amWSW 4.1 5.1----30.09- 74.3 63.1----
2024-04-20 10:42 am SW 4.1 5.1----30.09- 74.1 63.1----
2024-04-20 10:36 am SW 4.1 5.1----30.09- 74.1 63.1----
2024-04-20 10:30 am SW 2.9 4.1----30.09- 73.8 63.1----
2024-04-20 10:24 amSSW 4.1 5.1----30.09- 72.7 63.1----
2024-04-20 10:18 amSSW 4.1 4.1----30.09- 73.8 63.1----
2024-04-20 10:12 amSSW 4.1 4.1----30.09- 73.6 63.1----
2024-04-20 10:06 amSSW 4.1 4.1----30.09- 73.2 63.1----
2024-04-20 10:00 am SW 2.9 4.1----30.09+0.04 73.9 63.1----
2024-04-20 09:54 am SW 4.1 4.1----30.10- 73.8 63.1----
2024-04-20 09:48 amSSW 2.9 4.1----30.10- 73.4 63.1----
2024-04-20 09:42 amSSW 4.1 4.1----30.09- 72.9 63.1----
2024-04-20 09:36 amSSW 4.1 5.1----30.09- 72.7 63.1----
2024-04-20 09:30 amSSW 4.1 5.1----30.09- 72.3 63.1----
2024-04-20 09:24 am SW 4.1 4.1----30.09- 73.0 63.1----
2024-04-20 09:18 am SW 2.9 2.9----30.09- 73.2 63.1----
2024-04-20 09:12 amWSW 2.9 2.9----30.09- 73.2 63.1----
2024-04-20 09:06 amWSW 2.9 4.1----30.09- 72.7 63.1----
2024-04-20 09:00 am W 1.0 1.9----30.09+0.04 72.0 63.1----
2024-04-20 08:54 am- 0.0 1.0----30.09- 72.9 63.1----
2024-04-20 08:48 am W 1.0 1.9----30.09-- 63.1----
2024-04-20 08:42 amWNW 1.9 1.9----30.09-- 63.1----
2024-04-20 08:36 amWSW 1.9 1.9----30.09-- 63.1----
2024-04-20 08:30 amSSE 1.9 4.1----30.08- 72.7 63.1----
2024-04-20 08:24 amSSE 2.9 4.1----30.08- 72.3 63.1----
2024-04-20 08:18 amSSE 1.0 2.9----30.08- 72.3 63.1----
2024-04-20 08:12 am E 1.9 4.1----30.07- 72.0 63.1----
2024-04-20 08:06 amESE 1.0 4.1----30.07- 71.8 63.0----
2024-04-20 08:00 am SE 1.0 5.1----30.06+0.04 71.8 63.0----
2024-04-20 07:54 amSSE 2.9 5.1----30.06- 71.2 63.0----
2024-04-20 07:48 amSSE 1.9 2.9----30.06- 70.9 63.0----
2024-04-20 07:42 am SE 1.9 2.9----30.07- 70.5 63.0----
2024-04-20 07:36 am- 0.0 1.0----30.07- 69.4 63.0----
2024-04-20 07:30 am- 0.0 1.9----30.08- 71.1 63.0----
2024-04-20 07:24 am E 1.0 2.9----30.07- 70.2 63.0----
2024-04-20 07:18 am E 1.9 2.9----30.07- 70.0 63.0----
2024-04-20 07:12 am- 0.0 1.9----30.06- 70.3 63.0----
2024-04-20 07:06 amESE 1.9 2.9----30.06- 69.6 63.0----
2024-04-20 07:00 am E 1.9 2.9----30.06+0.02 69.4 63.1----
2024-04-20 06:54 amESE 1.9 4.1----30.05- 69.3 63.1----
2024-04-20 06:48 am E 1.0 2.9----30.06- 69.3 63.1----
2024-04-20 06:42 am E 2.9 5.1----30.05- 69.3 63.1----
2024-04-20 06:36 amESE 2.9 4.1----30.05- 69.3 63.1----
2024-04-20 06:30 am E 2.9 5.1----30.05- 69.4 63.1----
2024-04-20 06:24 amESE 4.1 5.1----30.05- 69.4 63.1----
2024-04-20 06:18 am E 2.9 4.1----30.05- 69.4 63.1----
2024-04-20 06:12 am E 4.1 4.1----30.05- 69.1 63.1----
2024-04-20 06:06 am E 2.9 2.9----30.05- 69.3 63.1----
2024-04-20 06:00 amESE 1.9 2.9----30.05+0.01 69.3 63.1----
2024-04-20 05:54 amESE 2.9 2.9----30.04- 69.4 63.1----
2024-04-20 05:48 amESE 2.9 4.1----30.04- 69.3 63.1----
2024-04-20 05:42 am E 2.9 2.9----30.04- 68.9 63.1----
2024-04-20 05:36 am E 1.0 2.9----30.04- 68.9 63.1----
2024-04-20 05:30 amENE 1.9 2.9----30.04-- 63.1----
2024-04-20 05:24 am NE 1.9 2.9----30.04-- 63.1----
2024-04-20 05:18 amENE 1.9 1.9----30.04- 69.6 63.1----
2024-04-20 05:12 amENE 2.9 2.9----30.03- 69.4 63.1----
2024-04-20 05:06 amENE 1.0 2.9----30.03- 69.4 63.1----
2024-04-20 05:00 am E 1.9 1.9----30.03+0.00- 63.1----
2024-04-20 04:54 amSSE 1.0 2.9----30.03-- 63.1----
2024-04-20 04:48 amSSW 4.1 4.1----30.03- 68.7 63.1----
2024-04-20 04:42 amSSW 2.9 4.1----30.03- 69.1 63.1----
2024-04-20 04:36 amSSW 4.1 5.1----30.03- 69.3 63.1----
2024-04-20 04:30 amSSW 4.1 5.1----30.03- 69.3 63.1----
2024-04-20 04:24 am S 2.9 2.9----30.03- 69.4 63.1----
2024-04-20 04:18 am S 1.9 1.9----30.03- 69.3 63.1----
2024-04-20 04:12 am- 0.0 0.0----30.03- 69.1 63.1----
2024-04-20 04:06 am- 0.0 1.9----30.03- 68.9 63.1----
2024-04-20 04:00 am N 1.9 1.9----30.04+0.00 68.9 63.1----
2024-04-20 03:54 am N 1.0 1.9----30.04- 68.9 63.1----
2024-04-20 03:48 am N 1.9 2.9----30.04- 68.4 63.1----
2024-04-20 03:42 amNNW 1.0 1.9----30.04- 68.2 63.1----
2024-04-20 03:36 amWNW 1.0 1.9----30.03- 68.0 63.1----
2024-04-20 03:30 amWNW 1.9 1.9----30.03-- 63.1----
2024-04-20 03:24 am W 1.0 1.9----30.03-- 63.1----
2024-04-20 03:18 am- 0.0 1.0----30.03- 67.3 63.1----
2024-04-20 03:12 am- 0.0 1.9----30.03- 66.9 63.1----
2024-04-20 03:06 amWNW 1.0 2.9----30.03- 66.4 63.1----
2024-04-20 03:00 am-------30.03-0.02- 63.1----
2024-04-20 02:54 am-------30.03-- 63.1----
2024-04-20 02:48 am SW 1.0 1.9----30.03- 68.7 63.1----
2024-04-20 02:42 am S 1.0 1.9----30.03- 69.6 63.1----
2024-04-20 02:36 amSSW 1.0 1.0----30.03- 69.3 63.1----
2024-04-20 02:30 am S 1.0 1.9----30.03- 69.4 63.1----
2024-04-20 02:24 am S 2.9 4.1----30.02- 69.3 63.1----
2024-04-20 02:18 am S 2.9 4.1----30.02- 69.3 63.1----
2024-04-20 02:12 am S 2.9 4.1----30.02- 69.4 63.1----
2024-04-20 02:06 am S 2.9 4.1----30.02- 69.4 63.1----
2024-04-20 02:00 am S 4.1 4.1----30.03-0.04 69.3 63.1----
2024-04-20 01:54 amSSW 2.9 4.1----30.03- 68.9 63.1----
2024-04-20 01:48 amSSW 2.9 4.1----30.03- 69.1 63.1----
2024-04-20 01:42 amSSW 2.9 2.9----30.03- 69.3 63.1----
2024-04-20 01:36 amSSW 1.9 2.9----30.03- 69.3 63.1----
2024-04-20 01:30 amSSW 1.9 2.9----30.03- 68.7 63.1----
2024-04-20 01:24 am SW 2.9 2.9----30.04- 69.4 63.1----
2024-04-20 01:18 amSSW 1.9 1.9----30.04- 69.8 63.1----
2024-04-20 01:12 am S 1.9 2.9----30.04- 70.0 63.1----
2024-04-20 01:06 am S 1.9 2.9----30.04- 69.6 63.1----
2024-04-20 01:00 amSSW 2.9 4.1----30.04-0.02 70.2 63.1----
2024-04-20 12:54 am S 2.9 4.1----30.04- 70.3 63.1----
2024-04-20 12:48 am S 2.9 4.1----30.04- 70.3 63.1----
2024-04-20 12:42 am S 4.1 5.1----30.03- 70.0 63.1----
2024-04-20 12:36 am S 2.9 4.1----30.04- 70.0 63.1----
2024-04-20 12:30 am S 2.9 4.1----30.04- 70.2 63.1----
2024-04-20 12:24 am S 2.9 2.9----30.05- 70.3 63.1----
2024-04-20 12:18 am S 1.9 1.9----30.05- 70.3 63.1----
2024-04-20 12:12 amSSE 1.0 1.9----30.05- 70.3 63.1----
2024-04-20 12:06 am S 1.0 1.9----30.06- 70.2 63.1----
2024-04-20 12:00 am S 1.9 2.9----30.06+0.01 70.3 63.1----
2024-04-19 11:54 pmSSW 2.9 4.1----30.06- 70.2 63.1----
2024-04-19 11:48 pm S 2.9 4.1----30.06- 70.2 63.1----
2024-04-19 11:42 pm S 2.9 4.1----30.06- 70.2 63.1----
2024-04-19 11:36 pm S 4.1 5.1----30.06- 69.8 63.1----
2024-04-19 11:30 pmSSW 4.1 5.1----30.06- 69.4 63.1----
2024-04-19 11:24 pmSSW 2.9 4.1----30.06- 69.3 63.1----
2024-04-19 11:18 pmSSW 4.1 6.0----30.06- 69.1 63.1----
2024-04-19 11:12 pmSSW 5.1 6.0----30.06- 69.3 63.1----
2024-04-19 11:06 pmSSW 5.1 5.1----30.06- 68.7 63.1----
2024-04-19 11:00 pm SW 5.1 6.0----30.06+0.03 68.2 63.1----
2024-04-19 10:54 pmSSW 5.1 6.0----30.06- 68.9 63.1----
2024-04-19 10:48 pmSSW 6.0 6.0----30.06- 68.5 63.1----
2024-04-19 10:42 pmSSW 6.0 7.0----30.06- 68.9 63.1----
2024-04-19 10:36 pmSSW 6.0 6.0----30.06- 69.1 63.1----
2024-04-19 10:30 pmSSW 5.1 6.0----30.06- 69.4 63.1----
2024-04-19 10:24 pmSSW 5.1 5.1----30.06- 69.6 63.1----
2024-04-19 10:18 pmSSW 5.1 5.1----30.06- 69.3 63.1----
2024-04-19 10:12 pmSSW 5.1 5.1----30.06- 69.3 63.1----
2024-04-19 10:06 pm SW 5.1 5.1----30.06- 69.8 63.1----
2024-04-19 10:00 pm SW 5.1 5.1----30.06+0.04 69.8 63.1----
2024-04-19 09:54 pm SW 4.1 4.1----30.06- 69.8 63.1----
2024-04-19 09:48 pm SW 2.9 4.1----30.06- 69.1 63.1----
2024-04-19 09:42 pm SW 4.1 4.1----30.06- 68.7 63.1----
2024-04-19 09:36 pm SW 4.1 4.1----30.06- 69.1 63.3----
2024-04-19 09:30 pmSSW 4.1 4.1----30.06- 69.8 63.3----
2024-04-19 09:24 pmSSW 4.1 5.1----30.06- 70.5 63.1----
2024-04-19 09:18 pmSSW 4.1 4.1----30.06- 70.7 63.3----
2024-04-19 09:12 pmSSW 2.9 2.9----30.05- 70.7 63.3----
2024-04-19 09:06 pmSSW 1.9 2.9----30.05- 70.9 63.3----
2024-04-19 09:00 pmSSW 1.9 1.9----30.05+0.02 70.9 63.3----
2024-04-19 08:54 pm S 1.9 1.9----30.04- 71.1 63.3----
2024-04-19 08:48 pm S 1.9 2.9----30.04- 71.2 63.3----
2024-04-19 08:42 pm S 1.9 2.9----30.04- 71.2 63.3----
2024-04-19 08:36 pm S 2.9 2.9----30.04- 71.4 63.3----
2024-04-19 08:30 pm S 2.9 2.9----30.04- 71.6 63.3----
2024-04-19 08:24 pm S 2.9 2.9----30.04- 71.6 63.3----
2024-04-19 08:18 pm S 2.9 2.9----30.04- 71.4 63.3----
2024-04-19 08:12 pm S 2.9 2.9----30.03- 71.4 63.5----
2024-04-19 08:06 pm S 2.9 2.9----30.03- 71.4 63.5----
2024-04-19 08:00 pm S 1.9 2.9----30.03+0.00 71.4 63.3----
2024-04-19 07:54 pm S 2.9 5.1----30.03- 71.2 63.5----
2024-04-19 07:48 pm S 4.1 6.0----30.03- 70.9 63.5----
2024-04-19 07:42 pm S 5.1 6.0----30.03- 71.2 63.5----
2024-04-19 07:36 pm S 6.0 7.0----30.03- 71.4 63.5----
2024-04-19 07:30 pm S 6.0 7.0----30.03- 71.6 63.5----
2024-04-19 07:24 pm S 6.0 8.0----30.03- 71.2 63.5----
2024-04-19 07:18 pm S 7.0 8.9----30.03- 70.9 63.5----
2024-04-19 07:12 pm S 8.0 8.9----30.03- 70.9 63.5----
2024-04-19 07:06 pm S 8.0 8.9----30.03- 69.3 63.5----
2024-04-19 07:00 pmSSW 8.0 8.9----30.03-0.01 69.1 63.5----
2024-04-19 06:54 pmSSW 7.0 8.0----30.03- 69.1 63.5----
2024-04-19 06:48 pmSSW 7.0 8.0----30.03- 69.6 63.5----
2024-04-19 06:42 pmSSW 7.0 8.0----30.03- 70.7 63.5----
2024-04-19 06:36 pmSSW 7.0 8.0----30.03- 71.4 63.5----
2024-04-19 06:30 pmSSW 6.0 7.0----30.03- 70.7 63.5----
2024-04-19 06:24 pmSSW 7.0 8.0----30.03- 72.7 63.7----
2024-04-19 06:18 pmSSW 7.0 9.9----30.03- 72.5 63.7----
2024-04-19 06:12 pm S 8.9 9.9----30.03- 73.0 63.7----
2024-04-19 06:00 pm S 8.0 8.9----30.03-0.03 72.3 63.7----
2024-04-19 05:54 pmSSW 8.0 8.9----30.03- 73.6 63.7----
2024-04-19 05:48 pmSSW 8.9 9.9----30.03- 73.8 63.7----
2024-04-19 05:42 pmSSW 8.0 8.9----30.03- 73.9 63.7----
2024-04-19 05:36 pmSSW 8.9 8.9----30.03- 73.9 63.7----
2024-04-19 05:30 pmSSW 8.9 9.9----30.03- 74.1 63.7----
2024-04-19 05:24 pmSSW 8.0 8.9----30.03- 75.0 63.7----
2024-04-19 05:18 pmSSW 8.0 11.1----30.03- 74.5 63.7----
2024-04-19 05:12 pmSSW 8.0 9.9----30.03- 74.1 63.7----
2024-04-19 05:06 pmSSW 7.0 8.9----30.03- 74.7 63.7----
2024-04-19 05:00 pmSSW 8.9 9.9----30.03-0.04 74.7 63.7----
2024-04-19 04:54 pm S 8.0 9.9----30.03- 74.1 63.7----
2024-04-19 04:48 pmSSW 8.9 9.9----30.04- 74.5 63.7----
2024-04-19 04:42 pmSSW 7.0 8.0----30.04- 74.3 63.9----
2024-04-19 04:36 pmSSW 7.0 8.9----30.04- 73.9 63.9----
2024-04-19 04:30 pmSSW 8.9 9.9----30.04- 74.3 63.9----
2024-04-19 04:24 pmSSW 8.9 9.9----30.04- 73.6 63.9----
2024-04-19 04:18 pmSSW 8.0 8.9----30.04- 72.9 63.9----
2024-04-19 04:12 pmSSW 8.0 9.9----30.04- 73.6 63.7----
2024-04-19 04:06 pmSSW 8.9 9.9----30.04- 74.7 63.7----
2024-04-19 04:00 pmSSW 8.9 9.9----30.04-0.05 74.5 63.9----
2024-04-19 03:54 pmSSW 8.9 9.9----30.04- 75.0 63.9----
2024-04-19 03:48 pmSSW 8.9 9.9----30.04- 74.5 63.9----
2024-04-19 03:42 pmSSW 7.0 8.9----30.04- 73.2 63.9----
2024-04-19 03:36 pmSSW 8.9 9.9----30.04- 74.7 63.9----
2024-04-19 03:30 pmSSW 7.0 8.9----30.04- 73.4 63.9----
2024-04-19 03:24 pmSSW 8.0 11.1----30.05- 74.8 64.0----
2024-04-19 03:18 pmSSW 8.9 9.9----30.05- 74.7 64.0----
2024-04-19 03:12 pmSSW 8.0 9.9----30.05- 74.5 63.9----
2024-04-19 03:06 pmSSW 7.0 9.9----30.05- 74.5 63.9----
2024-04-19 03:00 pm S 8.0 11.1----30.05-0.05 75.7 63.9----
2024-04-19 02:54 pm S 5.1 9.9----30.05- 73.9 63.9----
2024-04-19 02:48 pmSSW 8.0 9.9----30.05- 74.5 63.9----
2024-04-19 02:42 pm S 9.9 12.0----30.05- 74.5 63.9----
2024-04-19 02:36 pmSSW 8.0 11.1----30.06- 73.8 63.9----
2024-04-19 02:30 pmSSW 8.9 11.1----30.06- 73.8 63.9----
2024-04-19 02:24 pmSSW 8.9 9.9----30.06- 73.9 63.9----
2024-04-19 02:18 pmSSW 8.0 8.0----30.06- 73.0 63.9----
2024-04-19 02:12 pmSSW 8.0 8.9----30.07- 73.8 63.9----
2024-04-19 02:06 pmSSW 8.9 9.9----30.07- 73.6 63.9----
2024-04-19 02:00 pmSSW 8.0 9.9----30.07-0.04 73.8 63.9----
2024-04-19 01:54 pmSSW 8.0 9.9----30.07- 74.3 63.9----
2024-04-19 01:48 pmSSW 9.9 9.9----30.07- 74.3 63.9----
2024-04-19 01:42 pmSSW 8.9 11.1----30.07- 75.2 63.7----
2024-04-19 01:36 pmSSW 9.9 11.1----30.08- 74.8 63.7----
2024-04-19 01:30 pmSSW 8.9 12.0----30.08- 75.2 63.7----
2024-04-19 01:24 pmSSW 9.9 11.1----30.08- 75.6 63.7----
2024-04-19 01:18 pmSSW 7.0 8.0----30.08- 75.0 63.9----
2024-04-19 01:12 pm S 5.1 8.9----30.08- 75.9 63.9----
2024-04-19 01:06 pm S 5.1 7.0----30.09- 75.0 63.9----
2024-04-19 01:00 pm S 7.0 8.0----30.09-0.01 75.6 63.9----
2024-04-19 12:54 pm S 7.0 8.9----30.09- 75.0 63.7----
2024-04-19 12:48 pm S 6.0 8.0----30.09- 75.2 63.9----
2024-04-19 12:42 pm S 7.0 8.9----30.09- 75.4 63.7----
2024-04-19 12:36 pm S 5.1 9.9----30.09- 75.9 63.7----
2024-04-19 12:30 pmSSW 8.0 8.9----30.09- 75.2 63.7----
2024-04-19 12:24 pmSSW 8.0 8.9----30.10- 75.2 63.7----
2024-04-19 12:18 pmSSW 7.0 9.9----30.10- 76.5 63.7----
2024-04-19 12:12 pmSSW 8.0 9.9----30.10- 75.9 63.7----
2024-04-19 12:06 pmSSW 8.9 9.9----30.10- 74.8 63.7----
2024-04-19 12:00 pmSSW 8.0 8.9----30.10+0.01 74.5 63.7----
2024-04-19 11:54 am S 6.0 8.0----30.10- 73.9 63.9----
2024-04-19 11:48 am S 5.1 8.9----30.10- 75.0 63.7----
2024-04-19 11:42 am S 6.0 8.0----30.10- 75.6 63.7----
2024-04-19 11:36 am S 5.1 8.0----30.10- 75.9 63.7----
2024-04-19 11:30 am SE 4.1 8.9----30.10- 76.1 63.7----
2024-04-19 11:24 am SE 4.1 7.0----30.11- 76.6 63.7----
2024-04-19 11:18 am SE 4.1 7.0----30.11- 76.5 63.7----
2024-04-19 11:12 am SE 4.1 8.0----30.11- 76.6 63.7----
2024-04-19 11:06 am SE 5.1 8.9----30.11- 76.8 63.7----
2024-04-19 11:00 am E 7.0 9.9----30.11+0.03 76.3 63.7----
2024-04-19 10:54 am E 6.0 9.9----30.11- 75.9 63.7----